Time,TemperatureF,DewpointF,PressureIn,WindDirection,WindDirectionDegrees,WindSpeedMPH,WindSpeedGustMPH,Humidity,HourlyPrecipIn,Conditions,Clouds,dailyrainin,SoftwareType,DateUTC
2013-12-06 00:10:00,44.3,41.0,29.96,NNW,348,12.0,16.0,87,0.00,,,0.01,weatherlink.com 1.10,2013-12-06 06:10:00,
2013-12-06 00:25:00,44.4,41.0,29.96,NNW,348,5.0,16.0,88,0.00,,,0.01,weatherlink.com 1.10,2013-12-06 06:25:00,
2013-12-06 00:40:00,44.0,40.0,29.96,NNW,348,5.0,19.0,87,0.00,,,0.01,weatherlink.com 1.10,2013-12-06 06:40:00,
2013-12-06 00:55:00,43.7,40.0,29.96,North,4,8.0,15.0,87,0.00,,,0.01,weatherlink.com 1.10,2013-12-06 06:55:00,
2013-12-06 01:10:00,43.4,40.0,29.96,NNE,20,5.0,18.0,87,0.00,,,0.01,weatherlink.com 1.10,2013-12-06 07:10:00,
2013-12-06 01:25:00,43.0,40.0,29.95,NNW,333,9.0,20.0,88,0.00,,,0.01,weatherlink.com 1.10,2013-12-06 07:25:00,
2013-12-06 01:40:00,42.7,40.0,29.96,NNW,332,7.0,15.0,89,0.00,,,0.01,weatherlink.com 1.10,2013-12-06 07:40:00,
2013-12-06 01:55:00,42.3,39.0,29.97,NNW,329,8.0,18.0,89,0.00,,,0.01,weatherlink.com 1.10,2013-12-06 07:55:00,
2013-12-06 02:10:00,41.9,39.0,29.97,NNW,329,10.0,20.0,90,0.00,,,0.00,weatherlink.com 1.10,2013-12-06 08:10:00,
2013-12-06 02:25:00,41.8,39.0,29.98,North,352,6.0,15.0,91,0.00,,,0.00,weatherlink.com 1.10,2013-12-06 08:25:00,
2013-12-06 02:40:00,41.6,39.0,29.99,NW,322,7.0,20.0,91,0.00,,,0.00,weatherlink.com 1.10,2013-12-06 08:40:00,
2013-12-06 02:55:00,41.6,39.0,29.99,NW,321,13.0,18.0,91,0.00,,,0.00,weatherlink.com 1.10,2013-12-06 08:55:00,
2013-12-06 03:10:00,41.8,39.0,30.01,North,355,15.0,22.0,91,0.00,,,0.00,weatherlink.com 1.10,2013-12-06 09:10:00,
2013-12-06 03:25:00,41.6,39.0,30.00,NW,312,13.0,19.0,89,0.00,,,0.00,weatherlink.com 1.10,2013-12-06 09:25:00,
2013-12-06 03:40:00,41.7,39.0,30.00,NNW,338,10.0,16.0,89,0.00,,,0.00,weatherlink.com 1.10,2013-12-06 09:40:00,
2013-12-06 03:55:00,41.3,39.0,30.00,NW,316,13.0,18.0,90,0.00,,,0.00,weatherlink.com 1.10,2013-12-06 09:55:00,
2013-12-06 04:11:00,41.3,38.0,30.00,WNW,302,4.0,18.0,89,0.00,,,0.00,weatherlink.com 1.10,2013-12-06 10:11:00,
2013-12-06 04:26:00,41.3,38.0,30.00,NNW,331,7.0,18.0,89,0.00,,,0.00,weatherlink.com 1.10,2013-12-06 10:26:00,
2013-12-06 04:41:00,41.4,38.0,30.00,NNW,348,8.0,15.0,88,0.00,,,0.00,weatherlink.com 1.10,2013-12-06 10:41:00,
2013-12-06 04:56:00,41.5,38.0,30.01,NNW,343,6.0,19.0,88,0.00,,,0.00,weatherlink.com 1.10,2013-12-06 10:56:00,
2013-12-06 05:11:00,41.6,38.0,30.01,NNE,12,12.0,18.0,87,0.00,,,0.00,weatherlink.com 1.10,2013-12-06 11:11:00,
2013-12-06 05:26:00,41.4,38.0,30.02,NNW,330,11.0,16.0,86,0.00,,,0.00,weatherlink.com 1.10,2013-12-06 11:26:00,
2013-12-06 05:41:00,41.2,37.0,30.02,NNW,332,6.0,20.0,85,0.00,,,0.00,weatherlink.com 1.10,2013-12-06 11:41:00,
2013-12-06 05:56:00,41.2,37.0,30.02,NW,326,13.0,15.0,85,0.00,,,0.00,weatherlink.com 1.10,2013-12-06 11:56:00,
2013-12-06 06:11:00,41.0,37.0,30.03,NW,318,10.0,19.0,85,0.00,,,0.00,weatherlink.com 1.10,2013-12-06 12:11:00,
2013-12-06 06:26:00,40.7,37.0,30.04,NW,320,13.0,21.0,86,0.00,,,0.00,weatherlink.com 1.10,2013-12-06 12:26:00,
2013-12-06 06:41:00,40.4,37.0,30.05,North,355,11.0,23.0,86,0.00,,,0.00,weatherlink.com 1.10,2013-12-06 12:41:00,
2013-12-06 06:56:00,40.2,37.0,30.06,NW,306,12.0,21.0,87,0.00,,,0.00,weatherlink.com 1.10,2013-12-06 12:56:00,
2013-12-06 07:11:00,40.1,37.0,30.08,NNW,329,18.0,20.0,89,0.00,,,0.00,weatherlink.com 1.10,2013-12-06 13:11:00,
2013-12-06 07:26:00,39.7,37.0,30.08,NNW,343,6.0,21.0,89,0.00,,,0.00,weatherlink.com 1.10,2013-12-06 13:26:00,
2013-12-06 07:41:00,39.6,37.0,30.09,NNW,348,9.0,23.0,89,0.00,,,0.00,weatherlink.com 1.10,2013-12-06 13:41:00,
2013-12-06 07:56:00,39.7,37.0,30.10,North,2,13.0,22.0,89,0.00,,,0.00,weatherlink.com 1.10,2013-12-06 13:56:00,
2013-12-06 08:11:00,40.0,37.0,30.10,North,352,12.0,24.0,90,0.00,,,0.00,weatherlink.com 1.10,2013-12-06 14:11:00,
2013-12-06 08:26:00,40.2,38.0,30.11,NW,312,12.0,18.0,90,0.00,,,0.00,weatherlink.com 1.10,2013-12-06 14:26:00,
2013-12-06 08:41:00,39.7,37.0,30.12,North,357,15.0,21.0,91,0.00,,,0.00,weatherlink.com 1.10,2013-12-06 14:41:00,
2013-12-06 08:56:00,39.4,37.0,30.13,NNW,343,16.0,26.0,91,0.00,,,0.00,weatherlink.com 1.10,2013-12-06 14:56:00,
2013-12-06 09:11:00,39.2,37.0,30.14,NW,311,15.0,22.0,91,0.00,,,0.00,weatherlink.com 1.10,2013-12-06 15:11:00,
2013-12-06 09:26:00,39.3,37.0,30.15,North,2,7.0,21.0,91,0.00,,,0.00,weatherlink.com 1.10,2013-12-06 15:26:00,
2013-12-06 09:41:00,39.5,37.0,30.16,NW,321,12.0,22.0,90,0.00,,,0.00,weatherlink.com 1.10,2013-12-06 15:41:00,
2013-12-06 09:56:00,39.2,36.0,30.16,North,354,11.0,23.0,89,0.00,,,0.00,weatherlink.com 1.10,2013-12-06 15:56:00,
2013-12-06 10:11:00,39.4,37.0,30.18,NNW,338,9.0,23.0,89,0.00,,,0.00,weatherlink.com 1.10,2013-12-06 16:11:00,
2013-12-06 10:26:00,39.7,37.0,30.18,NNW,343,13.0,24.0,88,0.00,,,0.00,weatherlink.com 1.10,2013-12-06 16:26:00,
2013-12-06 10:41:00,40.0,37.0,30.18,NNW,338,8.0,22.0,88,0.00,,,0.00,weatherlink.com 1.10,2013-12-06 16:41:00,
2013-12-06 10:56:00,40.3,37.0,30.18,NW,323,10.0,25.0,87,0.00,,,0.00,weatherlink.com 1.10,2013-12-06 16:56:00,
2013-12-06 11:12:00,40.8,37.0,30.19,NNW,343,9.0,25.0,86,0.00,,,0.00,weatherlink.com 1.10,2013-12-06 17:12:00,
2013-12-06 11:27:00,41.3,37.0,30.18,NNW,338,13.0,21.0,86,0.00,,,0.00,weatherlink.com 1.10,2013-12-06 17:27:00,
2013-12-06 11:42:00,41.4,37.0,30.19,NNW,338,6.0,24.0,85,0.00,,,0.00,weatherlink.com 1.10,2013-12-06 17:42:00,
2013-12-06 11:57:00,41.9,38.0,30.18,NNW,348,8.0,22.0,85,0.00,,,0.00,weatherlink.com 1.10,2013-12-06 17:57:00,
2013-12-06 12:12:00,42.3,38.0,30.18,North,352,9.0,23.0,84,0.00,,,0.00,weatherlink.com 1.10,2013-12-06 18:12:00,
2013-12-06 12:27:00,42.8,38.0,30.17,NNW,333,19.0,21.0,83,0.00,,,0.00,weatherlink.com 1.10,2013-12-06 18:27:00,
2013-12-06 12:42:00,43.2,38.0,30.17,North,352,9.0,21.0,81,0.00,,,0.00,weatherlink.com 1.10,2013-12-06 18:42:00,
2013-12-06 12:57:00,43.3,38.0,30.16,NNW,334,7.0,22.0,81,0.00,,,0.00,weatherlink.com 1.10,2013-12-06 18:57:00,
2013-12-06 13:12:00,43.7,38.0,30.16,North,354,9.0,23.0,80,0.00,,,0.00,weatherlink.com 1.10,2013-12-06 19:12:00,
2013-12-06 13:27:00,44.2,38.0,30.15,NNE,17,13.0,21.0,79,0.00,,,0.00,weatherlink.com 1.10,2013-12-06 19:27:00,
2013-12-06 13:42:00,44.5,38.0,30.15,NNW,330,8.0,24.0,78,0.00,,,0.00,weatherlink.com 1.10,2013-12-06 19:42:00,
2013-12-06 13:57:00,44.5,38.0,30.14,NW,323,9.0,22.0,77,0.00,,,0.00,weatherlink.com 1.10,2013-12-06 19:57:00,
2013-12-06 14:12:00,44.9,38.0,30.14,North,9,9.0,23.0,77,0.00,,,0.00,weatherlink.com 1.10,2013-12-06 20:12:00,
2013-12-06 14:27:00,44.9,38.0,30.14,NNW,338,11.0,22.0,76,0.00,,,0.00,weatherlink.com 1.10,2013-12-06 20:27:00,
2013-12-06 14:42:00,45.1,38.0,30.14,NNW,334,13.0,19.0,76,0.00,,,0.00,weatherlink.com 1.10,2013-12-06 20:42:00,
2013-12-06 14:57:00,45.2,38.0,30.15,NNW,338,14.0,21.0,77,0.00,,,0.00,weatherlink.com 1.10,2013-12-06 20:57:00,
2013-12-06 15:27:00,46.1,39.0,30.15,NNW,338,9.0,18.0,76,0.00,,,0.00,weatherlink.com 1.10,2013-12-06 21:27:00,
2013-12-06 15:42:00,46.5,39.0,30.16,NNE,20,18.0,20.0,75,0.00,,,0.00,weatherlink.com 1.10,2013-12-06 21:42:00,
2013-12-06 15:57:00,47.0,39.0,30.16,North,356,8.0,21.0,74,0.00,,,0.00,weatherlink.com 1.10,2013-12-06 21:57:00,
2013-12-06 16:12:00,47.3,39.0,30.16,North,4,8.0,23.0,73,0.00,,,0.00,weatherlink.com 1.10,2013-12-06 22:12:00,
2013-12-06 16:27:00,47.2,39.0,30.17,NNW,348,8.0,20.0,73,0.00,,,0.00,weatherlink.com 1.10,2013-12-06 22:27:00,
2013-12-06 16:42:00,46.6,38.0,30.18,North,1,11.0,26.0,73,0.00,,,0.00,weatherlink.com 1.10,2013-12-06 22:42:00,
2013-12-06 16:57:00,46.4,38.0,30.19,NNW,338,14.0,23.0,73,0.00,,,0.00,weatherlink.com 1.10,2013-12-06 22:57:00,
2013-12-06 17:12:00,46.5,38.0,30.19,North,355,6.0,16.0,72,0.00,,,0.00,weatherlink.com 1.10,2013-12-06 23:12:00,
2013-12-06 17:27:00,46.2,38.0,30.20,North,5,10.0,23.0,72,0.00,,,0.00,weatherlink.com 1.10,2013-12-06 23:27:00,
2013-12-06 17:42:00,46.2,38.0,30.21,NNE,15,10.0,23.0,72,0.00,,,0.00,weatherlink.com 1.10,2013-12-06 23:42:00,
2013-12-06 17:57:00,45.9,37.0,30.22,NNE,13,11.0,23.0,72,0.00,,,0.00,weatherlink.com 1.10,2013-12-06 23:57:00,
2013-12-06 18:12:00,45.7,37.0,30.22,North,360,11.0,23.0,72,0.00,,,0.00,weatherlink.com 1.10,2013-12-07 00:12:00,
2013-12-06 18:27:00,45.5,37.0,30.22,NNW,334,10.0,23.0,72,0.00,,,0.00,weatherlink.com 1.10,2013-12-07 00:27:00,
2013-12-06 18:42:00,45.4,37.0,30.24,NW,323,15.0,23.0,72,0.00,,,0.00,weatherlink.com 1.10,2013-12-07 00:42:00,
2013-12-06 18:57:00,45.2,37.0,30.25,North,4,7.0,19.0,72,0.00,,,0.00,weatherlink.com 1.10,2013-12-07 00:57:00,
2013-12-06 19:12:00,44.4,36.0,30.26,North,4,15.0,25.0,72,0.00,,,0.00,weatherlink.com 1.10,2013-12-07 01:12:00,
2013-12-06 19:27:00,44.2,36.0,30.26,NNW,343,10.0,27.0,73,0.00,,,0.00,weatherlink.com 1.10,2013-12-07 01:27:00,
2013-12-06 19:42:00,43.7,35.0,30.27,North,2,11.0,27.0,72,0.00,,,0.00,weatherlink.com 1.10,2013-12-07 01:42:00,
2013-12-06 19:57:00,43.3,36.0,30.28,NNW,343,10.0,23.0,75,0.00,,,0.00,weatherlink.com 1.10,2013-12-07 01:57:00,
2013-12-06 20:12:00,41.9,35.0,30.29,NW,326,15.0,26.0,76,0.00,,,0.00,weatherlink.com 1.10,2013-12-07 02:12:00,
2013-12-06 20:27:00,41.6,35.0,30.30,NNW,348,13.0,26.0,76,0.00,,,0.00,weatherlink.com 1.10,2013-12-07 02:27:00,
2013-12-06 20:42:00,40.7,34.0,30.30,North,5,12.0,24.0,77,0.00,,,0.00,weatherlink.com 1.10,2013-12-07 02:42:00,
2013-12-06 20:57:00,40.4,34.0,30.30,North,360,11.0,21.0,77,0.00,,,0.00,weatherlink.com 1.10,2013-12-07 02:57:00,
2013-12-06 21:12:00,40.0,33.0,30.31,NNE,14,18.0,24.0,77,0.00,,,0.00,weatherlink.com 1.10,2013-12-07 03:12:00,
2013-12-06 21:27:00,39.8,33.0,30.31,NNW,333,7.0,22.0,78,0.00,,,0.00,weatherlink.com 1.10,2013-12-07 03:27:00,
2013-12-06 21:42:00,39.2,33.0,30.32,NNW,338,12.0,21.0,79,0.00,,,0.00,weatherlink.com 1.10,2013-12-07 03:42:00,
2013-12-06 21:58:00,38.9,33.0,30.32,NNW,343,19.0,22.0,78,0.00,,,0.00,weatherlink.com 1.10,2013-12-07 03:58:00,
2013-12-06 22:13:00,38.6,33.0,30.33,NW,323,8.0,22.0,79,0.00,,,0.00,weatherlink.com 1.10,2013-12-07 04:13:00,
2013-12-06 22:28:00,38.5,33.0,30.33,North,11,14.0,22.0,79,0.00,,,0.00,weatherlink.com 1.10,2013-12-07 04:28:00,
2013-12-06 22:43:00,38.1,32.0,30.33,NNW,343,12.0,23.0,79,0.00,,,0.00,weatherlink.com 1.10,2013-12-07 04:43:00,
2013-12-06 22:58:00,38.3,32.0,30.33,North,8,19.0,24.0,79,0.00,,,0.00,weatherlink.com 1.10,2013-12-07 04:58:00,
2013-12-06 23:13:00,38.3,32.0,30.34,NNW,348,12.0,20.0,79,0.00,,,0.00,weatherlink.com 1.10,2013-12-07 05:13:00,
2013-12-06 23:28:00,38.0,32.0,30.35,NNE,18,12.0,20.0,79,0.00,,,0.00,weatherlink.com 1.10,2013-12-07 05:28:00,
2013-12-06 23:43:00,37.9,32.0,30.34,NNW,327,18.0,21.0,79,0.00,,,0.00,weatherlink.com 1.10,2013-12-07 05:43:00,
2013-12-06 23:58:00,37.6,32.0,30.35,North,10,16.0,19.0,79,0.00,,,0.00,weatherlink.com 1.10,2013-12-07 05:58:00,